z/d,0,0,50,50,100,100,200,200,300,300,400,400,500,500,750,750,1000,1000,2000,2000,3000,3000,4000,4000,4700,4700
2016.09.01-01:00,1.15,75.77,.99,65.52,1.07,71.27,1.12,80.39,.98,80.18,.83,68.52,.83,81.45,.61,69.21,.30,65.31,.08,89.47,.04,35.32,.02,303.97,.03,270.00
2016.09.01-02:00,1.13,79.04,1.03,65.99,1.09,71.86,1.08,80.80,.94,79.52,.84,66.87,.78,82.45,.59,73.69,.29,65.97,.06,102.04,.02,356.03,.05,277.50,.04,270.00
2016.09.01-03:00,1.08,82.57,1.06,67.41,1.10,73.09,1.04,80.64,.91,78.01,.85,65.75,.73,82.83,.55,77.90,.27,67.65,.05,120.34,.02,280.97,.07,271.73,.05,270.00
2016.09.01-04:00,1.02,86.74,1.07,69.58,1.11,74.61,1.02,80.07,.89,75.84,.87,65.20,.69,82.32,.51,81.54,.26,70.17,.04,134.02,.03,264.72,.08,270.31,.05,270.00
2016.09.01-05:00,.92,90.49,1.06,72.22,1.10,76.03,1.00,79.26,.89,73.37,.91,65.18,.67,80.65,.48,84.23,.26,73.43,.04,130.25,.03,265.87,.07,271.86,.05,270.00
2016.09.01-06:00,.81,93.54,1.04,75.01,1.08,77.26,1.00,78.68,.91,71.43,.95,65.98,.67,78.46,.47,85.84,.27,76.47,.05,109.10,.02,288.02,.05,281.53,.04,270.00
2016.09.01-07:00,.72,95.34,1.02,77.60,1.07,78.26,1.02,78.59,.96,70.58,1.02,67.67,.70,76.55,.48,86.40,.30,78.02,.06,86.35,.02,347.47,.03,318.53,.03,270.00
2016.09.01-08:00,.67,96.62,1.01,79.48,1.06,78.65,1.03,78.63,1.02,70.43,1.08,69.49,.74,74.69,.50,85.68,.33,77.31,.08,72.21,.05,24.66,.04,23.36,.02,270.00
2016.09.01-09:00,.62,98.34,.99,80.47,1.05,78.14,1.04,78.25,1.07,70.44,1.12,70.93,.77,72.47,.50,83.71,.34,74.52,.11,65.28,.07,39.71,.07,49.30,.01,270.00
2016.09.01-10:00,.57,97.85,1.00,81.09,1.04,77.10,1.04,77.43,1.11,70.78,1.14,72.40,.79,70.16,.49,80.94,.35,70.69,.13,61.93,.09,44.47,.09,56.53,.01,270.00
2016.09.01-11:00,.54,94.52,1.01,81.76,1.05,76.18,1.04,76.51,1.14,71.69,1.15,74.24,.81,68.33,.48,78.08,.36,67.37,.14,61.15,.10,43.04,.09,56.50,.01,270.00
2016.09.01-12:00,.51,88.45,1.00,82.03,1.04,75.17,1.03,75.25,1.14,72.86,1.13,76.31,.81,67.14,.45,75.39,.37,65.21,.14,62.02,.09,36.46,.08,50.26,.01,270.00
2016.09.01-13:00,.47,78.81,.96,81.63,1.02,74.00,1.00,73.45,1.12,74.02,1.10,78.52,.81,66.72,.43,73.26,.37,64.75,.13,64.37,.07,23.14,.05,32.57,.02,270.00
2016.09.01-14:00,.44,64.94,.91,80.43,1.01,72.85,.98,71.23,1.10,75.06,1.06,80.76,.81,67.00,.40,71.46,.36,66.16,.11,68.38,.06,.77,.04,346.62,.03,270.00
2016.09.01-15:00,.48,51.66,.87,78.59,1.00,72.08,.98,69.12,1.08,76.01,1.01,82.86,.81,67.68,.37,69.11,.34,69.30,.09,74.37,.06,336.22,.05,304.00,.04,270.00
2016.09.01-16:00,.55,43.74,.83,76.47,1.00,71.80,1.00,67.46,1.06,76.72,.97,84.50,.81,68.34,.34,65.61,.32,74.07,.07,82.59,.06,322.61,.06,289.96,.05,270.00
2016.09.01-17:00,.62,39.75,.80,74.00,1.00,71.70,1.02,66.28,1.04,76.98,.92,85.31,.81,68.84,.34,61.47,.30,79.64,.06,89.73,.06,323.18,.06,288.07,.05,270.00
2016.09.01-18:00,.68,39.15,.78,71.54,1.01,71.93,1.06,66.19,1.04,77.18,.89,85.31,.83,69.66,.36,58.26,.30,84.29,.06,91.40,.06,335.65,.05,293.70,.04,270.00
2016.09.01-19:00,.75,40.55,.78,69.07,1.02,72.28,1.11,67.22,1.04,77.48,.86,84.39,.87,70.79,.40,56.28,.30,86.22,.07,86.71,.06,357.51,.03,317.38,.03,270.00
2016.09.01-20:00,.83,43.11,.82,66.83,1.04,72.49,1.17,69.07,1.06,77.90,.86,82.61,.91,72.08,.45,55.49,.29,85.28,.08,80.18,.07,19.71,.03,18.11,.02,270.00
2016.09.01-21:00,.90,48.56,.88,65.29,1.08,72.47,1.22,71.25,1.08,78.35,.86,80.10,.94,73.25,.51,55.49,.29,81.63,.10,74.88,.09,34.41,.05,51.48,.02,270.00
2016.09.01-22:00,.92,56.02,.96,64.85,1.11,72.32,1.25,73.43,1.08,78.70,.86,76.98,.96,74.00,.56,55.80,.29,75.60,.11,71.61,.10,42.27,.06,62.05,.01,270.00
2016.09.01-23:00,.99,59.57,1.03,65.52,1.14,72.20,1.26,75.39,1.07,78.84,.86,73.57,.96,74.39,.61,56.64,.29,68.88,.11,70.71,.09,46.92,.06,67.73,.01,270.00
2016.09.01-24:00,1.05,64.12,1.09,67.09,1.16,72.34,1.24,77.16,1.04,78.79,.87,70.55,.94,74.91,.64,58.67,.30,63.68,.10,71.18,.07,48.16,.04,70.26,.02,270.00
2016.09.02-01:00,1.08,69.20,1.13,69.34,1.16,72.96,1.19,78.76,.99,78.51,.87,68.43,.91,75.97,.66,62.27,.31,60.83,.08,72.14,.04,42.12,.00,21.62,.03,270.00
2016.09.02-02:00,1.10,73.21,1.16,72.06,1.16,74.07,1.14,80.04,.95,77.68,.88,67.26,.88,77.41,.65,67.14,.30,60.29,.05,75.23,.02,353.35,.04,261.21,.04,270.00
2016.09.02-03:00,1.09,77.12,1.17,75.03,1.16,75.46,1.09,80.66,.92,75.90,.90,66.58,.84,78.58,.63,72.54,.29,61.91,.03,87.06,.03,273.27,.07,260.76,.05,270.00
2016.09.02-04:00,1.03,79.82,1.15,77.95,1.15,76.85,1.05,80.43,.90,73.18,.92,66.17,.81,79.08,.60,77.76,.28,65.19,.02,116.60,.06,263.74,.10,262.10,.06,270.00
2016.09.02-05:00,.95,81.04,1.11,80.60,1.13,78.12,1.02,79.54,.91,70.18,.95,66.38,.78,79.21,.56,82.52,.27,69.55,.02,130.22,.07,264.43,.10,264.39,.06,270.00
2016.09.02-06:00,.85,80.68,1.04,82.71,1.11,79.22,1.00,78.40,.94,67.81,.99,67.50,.78,79.47,.54,86.56,.27,74.11,.02,108.29,.06,272.46,.09,269.66,.05,270.00
2016.09.02-07:00,.78,78.95,.97,83.72,1.09,79.98,1.01,77.40,.99,66.72,1.04,69.49,.79,79.95,.53,89.40,.29,77.69,.04,80.19,.05,294.87,.07,283.60,.05,270.00
2016.09.02-08:00,.73,74.52,.93,82.96,1.09,80.06,1.04,76.70,1.07,66.87,1.09,71.75,.82,80.18,.52,90.52,.30,79.16,.06,66.62,.05,334.22,.04,318.54,.04,270.00
2016.09.02-09:00,.72,65.71,.91,80.39,1.10,79.34,1.07,76.25,1.14,67.80,1.13,73.70,.84,79.69,.52,89.57,.32,77.76,.09,60.09,.06,8.25,.05,13.14,.02,270.00
2016.09.02-10:00,.77,56.83,.91,76.38,1.09,77.57,1.09,75.51,1.19,68.81,1.14,74.94,.83,78.17,.50,86.81,.33,73.89,.11,57.96,.08,27.41,.07,42.47,.01,270.00
2016.09.02-11:00,.85,51.24,.95,72.79,1.10,75.51,1.10,74.61,1.23,70.14,1.13,76.00,.82,75.99,.48,83.22,.34,69.22,.13,57.13,.09,34.26,.08,52.99,.01,270.00
2016.09.02-12:00,.96,50.11,1.01,71.39,1.12,74.31,1.12,74.09,1.25,72.17,1.12,77.44,.80,73.89,.45,79.65,.36,65.60,.13,56.55,.08,31.79,.08,54.46,.01,270.00
2016.09.02-13:00,1.04,50.14,1.07,71.16,1.13,73.53,1.12,73.41,1.25,74.22,1.08,78.73,.79,71.77,.42,75.97,.36,63.35,.12,56.97,.07,20.69,.05,48.50,.02,270.00
2016.09.02-14:00,1.09,51.25,1.10,71.33,1.14,73.01,1.10,72.43,1.23,76.08,1.03,79.67,.77,69.65,.39,71.99,.36,62.74,.10,59.19,.06,358.08,.02,11.60,.03,270.00
2016.09.02-15:00,1.12,53.02,1.11,71.56,1.13,73.03,1.10,71.54,1.20,77.89,.99,80.31,.76,67.84,.35,67.47,.35,64.18,.08,64.01,.05,328.35,.03,278.32,.04,270.00
2016.09.02-16:00,1.14,56.26,1.11,71.64,1.13,73.63,1.10,71.03,1.17,79.58,.95,80.53,.76,66.42,.33,61.88,.33,67.58,.06,72.50,.06,309.33,.06,264.47,.05,270.00
2016.09.02-17:00,1.12,61.83,1.09,71.44,1.12,74.60,1.12,70.97,1.14,81.00,.92,80.33,.78,65.57,.33,56.35,.31,72.74,.05,85.32,.07,303.85,.08,261.26,.05,270.00
2016.09.02-18:00,1.08,66.31,1.07,70.82,1.11,75.43,1.14,71.27,1.11,81.99,.90,79.97,.82,65.53,.36,53.49,.30,78.91,.05,94.91,.06,309.39,.08,261.90,.05,270.00
2016.09.02-19:00,1.02,66.66,1.06,69.67,1.09,75.53,1.17,71.77,1.09,82.43,.90,79.40,.86,66.34,.41,53.54,.30,84.65,.06,95.98,.06,329.01,.06,268.15,.04,270.00
2016.09.02-20:00,.97,65.42,1.08,68.56,1.09,74.88,1.20,72.60,1.08,82.48,.90,78.44,.92,67.72,.47,54.69,.30,88.11,.07,92.77,.06,359.98,.03,287.51,.03,270.00
2016.09.02-21:00,.96,63.83,1.11,68.25,1.10,73.84,1.24,73.90,1.08,82.31,.92,76.87,.97,69.17,.53,55.44,.29,87.24,.08,87.61,.07,25.51,.02,1.74,.03,270.00
2016.09.02-22:00,.99,63.55,1.17,69.28,1.13,73.02,1.27,75.73,1.07,82.10,.93,74.93,1.01,70.58,.60,55.80,.29,81.65,.09,82.44,.08,39.94,.04,47.01,.02,270.00
2016.09.02-23:00,1.04,62.98,1.24,71.44,1.17,72.67,1.29,77.83,1.07,81.71,.95,73.06,1.03,72.14,.65,56.62,.29,73.29,.09,77.74,.08,47.34,.04,58.62,.02,270.00
2016.09.02-24:00,1.11,63.48,1.31,73.86,1.21,72.51,1.29,79.65,1.05,80.86,.97,71.60,1.03,74.01,.69,58.71,.30,65.96,.08,72.94,.07,50.13,.03,61.29,.02,270.00
2016.09.03-01:00,1.17,64.38,1.35,76.32,1.25,72.64,1.26,80.97,1.02,79.50,.98,70.73,1.01,76.19,.71,62.33,.31,61.75,.07,66.05,.04,46.35,.01,38.35,.03,270.00
2016.09.03-02:00,1.22,65.78,1.38,78.82,1.27,73.34,1.22,81.87,.98,77.63,.98,70.50,.97,78.55,.70,67.32,.31,60.69,.05,52.54,.01,.01,.03,262.49,.03,270.00
2016.09.03-03:00,1.24,66.57,1.36,80.94,1.28,74.37,1.16,82.18,.95,75.17,.98,70.60,.92,80.62,.67,73.34,.30,62.60,.03,27.94,.03,270.79,.06,258.19,.05,270.00
2016.09.03-04:00,1.25,67.06,1.33,82.38,1.28,75.49,1.10,81.78,.94,72.26,.97,70.84,.86,81.88,.63,79.62,.28,66.32,.02,358.87,.06,261.02,.09,257.86,.05,270.00
2016.09.03-05:00,1.25,67.32,1.27,83.44,1.27,76.85,1.06,81.07,.94,69.81,.98,71.64,.82,82.43,.58,85.45,.27,70.35,.02,346.70,.08,260.37,.10,258.98,.06,270.00
2016.09.03-06:00,1.24,68.16,1.21,84.23,1.25,78.42,1.03,80.35,.97,68.44,1.00,73.14,.80,82.60,.55,90.03,.26,73.62,.02,11.97,.08,264.10,.10,261.69,.06,270.00
2016.09.03-07:00,1.22,68.72,1.13,84.40,1.23,79.89,1.02,79.61,1.01,68.03,1.02,74.99,.80,82.73,.52,93.02,.26,76.00,.03,42.97,.07,274.53,.08,267.61,.05,270.00
2016.09.03-08:00,1.16,67.28,1.06,83.33,1.21,80.75,1.02,78.58,1.06,68.04,1.04,76.50,.82,82.75,.51,94.24,.27,77.98,.06,54.25,.05,299.16,.05,283.40,.04,270.00
2016.09.03-09:00,1.11,64.67,1.03,81.16,1.20,80.95,1.04,77.43,1.12,68.43,1.07,77.46,.84,82.43,.51,93.54,.30,78.73,.09,58.92,.05,336.80,.03,329.74,.03,270.00
2016.09.03-10:00,1.09,62.06,1.02,78.68,1.20,80.71,1.07,76.47,1.18,69.35,1.08,77.95,.86,81.57,.50,90.95,.31,76.86,.12,62.09,.07,4.21,.04,20.40,.02,270.00
2016.09.03-11:00,1.09,59.44,1.04,76.23,1.19,79.76,1.09,75.24,1.23,70.29,1.08,77.66,.84,79.60,.48,86.05,.32,71.51,.14,65.65,.08,19.60,.06,42.36,.01,270.00
2016.09.03-12:00,1.14,59.16,1.10,75.48,1.21,79.01,1.13,74.24,1.27,71.83,1.06,77.29,.82,76.78,.44,79.34,.33,64.61,.14,68.87,.08,23.82,.07,50.38,.01,270.00
2016.09.03-13:00,1.20,61.33,1.18,76.34,1.24,78.71,1.16,73.48,1.30,73.72,1.04,76.92,.80,73.81,.42,72.17,.35,59.26,.12,72.02,.07,18.09,.05,51.57,.01,270.00
2016.09.03-14:00,1.20,62.75,1.21,77.11,1.24,78.29,1.17,72.50,1.29,75.45,1.00,76.27,.79,71.19,.40,66.68,.36,57.71,.10,76.28,.06,.26,.03,39.98,.02,270.00
2016.09.03-15:00,1.16,63.84,1.20,76.98,1.23,77.82,1.17,71.58,1.26,77.16,.97,75.57,.78,69.26,.38,63.31,.36,59.70,.07,83.08,.05,332.34,.02,283.44,.03,270.00
2016.09.03-16:00,1.12,64.15,1.19,75.87,1.22,77.59,1.18,71.32,1.24,79.11,.95,75.20,.77,68.19,.36,60.72,.34,63.87,.04,95.21,.06,310.31,.05,257.52,.04,270.00
2016.09.03-17:00,1.08,63.32,1.17,74.02,1.20,77.55,1.19,71.74,1.20,81.18,.94,75.19,.78,67.77,.35,58.19,.32,69.38,.03,114.30,.07,300.83,.08,253.25,.05,270.00
2016.09.03-18:00,1.06,62.85,1.15,72.21,1.17,77.64,1.20,72.70,1.17,83.11,.94,75.48,.80,67.73,.37,56.30,.31,75.37,.03,124.73,.06,301.30,.09,252.57,.05,270.00
2016.09.03-19:00,1.00,59.57,1.14,70.80,1.14,77.61,1.21,74.05,1.13,84.73,.95,76.19,.83,68.32,.41,56.34,.31,81.04,.03,113.21,.06,312.98,.08,254.81,.05,270.00
2016.09.03-20:00,.98,54.51,1.14,69.25,1.13,76.80,1.23,75.41,1.10,85.72,.96,77.06,.88,69.50,.47,58.20,.32,85.92,.04,93.39,.05,339.40,.06,261.45,.04,270.00
2016.09.03-21:00,1.02,50.77,1.17,67.91,1.13,75.17,1.24,76.55,1.07,85.77,.98,77.38,.93,70.67,.53,59.84,.32,88.46,.06,78.23,.06,11.90,.04,277.81,.04,270.00
2016.09.03-22:00,1.13,50.62,1.23,67.96,1.17,73.64,1.27,77.74,1.05,85.01,.99,76.90,.98,71.61,.59,60.47,.31,87.45,.07,67.85,.07,33.65,.02,346.60,.03,270.00
2016.09.03-23:00,1.28,51.49,1.32,69.71,1.22,72.97,1.29,79.08,1.04,83.62,1.01,75.95,1.01,72.49,.64,60.69,.30,82.83,.08,60.39,.08,45.03,.03,40.39,.02,270.00
2016.09.03-24:00,1.43,54.64,1.41,72.52,1.29,73.19,1.30,80.38,1.03,81.73,1.03,74.97,1.03,73.50,.68,61.15,.29,75.74,.08,54.25,.08,51.05,.03,47.55,.02,270.00
2016.09.04-01:00,1.53,59.69,1.49,75.88,1.35,74.16,1.29,81.54,1.01,79.60,1.03,74.34,1.01,74.84,.70,62.50,.28,68.07,.08,47.74,.05,54.27,.02,37.04,.02,270.00
2016.09.04-02:00,1.61,63.79,1.52,79.23,1.38,75.45,1.25,82.31,.99,77.25,1.02,74.16,.97,76.62,.69,65.46,.27,62.17,.07,39.17,.02,47.58,.02,307.55,.03,270.00
2016.09.04-03:00,1.66,66.59,1.51,81.64,1.38,76.41,1.20,82.28,.98,74.50,1.01,74.21,.93,78.50,.67,70.26,.27,60.01,.05,30.05,.02,257.74,.05,270.60,.04,270.00
2016.09.04-04:00,1.66,68.63,1.45,82.90,1.37,77.04,1.14,81.39,.97,71.60,.99,74.29,.87,79.93,.63,76.15,.26,60.89,.04,25.08,.06,252.15,.08,264.44,.05,270.00
2016.09.04-05:00,1.63,69.90,1.38,83.54,1.34,77.83,1.08,80.04,.98,69.22,.97,74.57,.82,80.55,.58,81.96,.24,62.52,.03,33.41,.09,252.98,.10,263.04,.05,270.00
2016.09.04-06:00,1.56,71.42,1.29,84.08,1.31,79.03,1.05,78.62,1.00,67.99,.96,75.37,.78,80.44,.54,86.82,.24,64.14,.03,60.51,.10,256.44,.10,264.07,.05,270.00
2016.09.04-07:00,1.48,72.00,1.21,84.31,1.28,80.39,1.03,77.17,1.04,67.99,.97,76.69,.77,80.23,.51,90.43,.25,66.92,.05,80.24,.10,264.31,.10,268.84,.05,270.00
2016.09.04-08:00,1.38,71.08,1.13,83.34,1.24,81.23,1.04,75.40,1.08,68.49,.98,77.87,.78,80.26,.50,92.71,.26,70.93,.07,85.01,.09,279.51,.07,279.91,.05,270.00
2016.09.04-09:00,1.30,68.09,1.07,80.91,1.21,81.26,1.06,73.48,1.12,69.07,1.00,78.45,.81,80.33,.50,93.25,.29,74.38,.09,83.73,.07,305.49,.05,304.88,.04,270.00
2016.09.04-10:00,1.29,64.98,1.05,77.82,1.20,80.78,1.12,72.28,1.17,70.06,1.02,78.74,.84,80.22,.51,91.99,.32,75.57,.10,80.33,.08,334.93,.04,351.35,.03,270.00
2016.09.04-11:00,1.34,62.59,1.07,74.77,1.20,79.74,1.18,71.69,1.22,71.20,1.03,78.54,.85,79.36,.50,88.59,.33,73.15,.10,76.80,.09,356.58,.05,33.18,.02,270.00
2016.09.04-12:00,1.44,61.52,1.12,72.57,1.21,78.23,1.23,71.37,1.24,72.24,1.02,77.66,.83,77.42,.48,82.94,.34,67.61,.10,73.87,.10,9.28,.06,58.27,.01,270.00
2016.09.04-13:00,1.57,63.10,1.20,72.36,1.23,77.07,1.28,71.72,1.26,73.65,1.00,76.77,.82,75.14,.45,76.64,.36,62.46,.09,70.34,.09,12.15,.05,75.00,.01,270.00
2016.09.04-14:00,1.68,66.23,1.26,73.08,1.25,75.91,1.31,72.14,1.27,74.97,.98,75.67,.80,73.02,.43,71.40,.36,60.39,.07,66.37,.08,6.49,.03,100.22,.02,270.00
2016.09.04-15:00,1.70,70.15,1.29,73.56,1.26,74.47,1.33,72.37,1.25,75.95,.96,74.22,.78,71.11,.39,67.49,.36,61.53,.04,63.46,.07,353.66,.02,201.84,.03,270.00
2016.09.04-16:00,1.63,74.10,1.31,73.86,1.27,73.35,1.34,72.87,1.23,76.90,.94,72.68,.77,69.43,.36,63.45,.33,65.08,.03,64.18,.06,334.39,.06,235.11,.04,270.00
2016.09.04-17:00,1.52,76.94,1.31,74.14,1.28,72.99,1.34,74.01,1.20,78.11,.93,71.51,.76,68.19,.33,58.46,.30,70.76,.01,80.53,.05,314.44,.09,245.57,.05,270.00
2016.09.04-18:00,1.38,78.43,1.29,74.02,1.28,73.03,1.33,75.55,1.16,79.43,.93,70.79,.76,67.24,.34,53.36,.29,77.11,.02,107.17,.05,300.88,.11,252.24,.06,270.00
2016.09.04-19:00,1.27,76.83,1.27,73.66,1.27,73.40,1.31,77.32,1.11,80.75,.93,70.82,.78,66.82,.38,50.43,.28,81.68,.03,107.47,.04,294.74,.12,258.23,.06,270.00
2016.09.04-20:00,1.18,73.06,1.25,72.79,1.27,73.69,1.28,78.77,1.07,81.60,.94,71.48,.81,67.07,.44,51.35,.29,84.66,.04,99.57,.03,301.94,.10,266.41,.06,270.00
2016.09.04-21:00,1.15,68.61,1.25,71.45,1.29,73.69,1.26,79.52,1.04,81.37,.96,72.03,.85,67.64,.51,54.09,.29,86.26,.06,90.75,.02,354.52,.08,280.92,.05,270.00
2016.09.04-22:00,1.17,64.64,1.30,70.63,1.33,73.96,1.27,79.90,1.03,80.12,.99,72.09,.90,68.29,.57,56.79,.29,85.47,.06,80.03,.03,44.01,.05,311.36,.04,270.00
2016.09.04-23:00,1.24,62.14,1.37,70.62,1.38,74.58,1.28,80.12,1.03,78.17,1.03,71.80,.95,69.01,.64,59.36,.29,82.12,.07,67.80,.04,54.78,.04,355.81,.02,270.00
2016.09.04-24:00,1.34,60.74,1.44,70.98,1.42,75.18,1.28,80.05,1.04,75.86,1.06,71.49,.99,69.92,.69,62.12,.29,77.55,.07,56.44,.03,52.53,.05,18.03,.02,270.00
2016.09.05-01:00,1.45,60.51,1.51,71.76,1.44,75.74,1.27,79.81,1.06,73.73,1.08,71.49,1.01,71.19,.72,65.01,.29,72.41,.07,46.06,.02,32.46,.04,22.81,.02,270.00
2016.09.05-02:00,1.56,61.77,1.58,73.51,1.46,76.64,1.25,79.61,1.06,72.11,1.07,71.95,.99,72.75,.71,67.92,.28,65.86,.07,36.11,.02,312.74,.03,12.93,.02,270.00
2016.09.05-03:00,1.64,64.17,1.62,75.96,1.45,77.62,1.21,78.94,1.06,70.58,1.05,72.55,.94,74.31,.68,71.34,.27,59.58,.06,29.00,.04,275.52,.02,295.81,.03,270.00
2016.09.05-04:00,1.68,66.67,1.62,78.32,1.42,78.19,1.16,77.31,1.07,68.97,1.03,72.99,.89,75.61,.63,75.84,.25,56.88,.06,27.04,.07,268.82,.05,258.94,.04,270.00
2016.09.05-05:00,1.69,68.57,1.60,80.36,1.38,78.33,1.13,75.01,1.09,67.65,1.00,73.20,.85,76.33,.57,80.94,.24,57.89,.04,35.58,.10,268.89,.08,255.29,.05,270.00
2016.09.05-06:00,1.71,68.45,1.56,82.41,1.33,78.43,1.12,72.86,1.11,67.31,.98,73.52,.80,76.42,.51,85.48,.23,60.57,.04,60.86,.11,271.59,.10,255.93,.05,270.00
2016.09.05-07:00,1.74,67.67,1.51,84.69,1.29,78.73,1.12,71.53,1.14,68.28,.97,74.32,.77,76.28,.47,88.22,.23,63.55,.05,85.85,.11,277.27,.10,258.53,.05,270.00
2016.09.05-08:00,1.75,68.16,1.43,86.72,1.25,78.91,1.13,70.80,1.16,70.05,.96,75.47,.77,76.49,.44,88.85,.25,66.94,.06,96.74,.10,287.98,.09,263.77,.05,270.00
2016.09.05-09:00,1.75,69.08,1.34,87.52,1.22,78.32,1.16,70.02,1.18,71.70,.97,76.42,.79,77.03,.44,87.75,.27,70.18,.08,100.19,.09,306.06,.07,273.98,.04,270.00
2016.09.05-10:00,1.75,69.85,1.26,86.83,1.21,77.02,1.20,69.32,1.20,72.94,.98,76.94,.81,77.58,.45,85.45,.30,71.96,.08,100.23,.08,330.06,.04,296.28,.04,270.00
2016.09.05-11:00,1.78,70.84,1.21,85.16,1.22,75.47,1.26,69.21,1.23,74.12,1.00,77.22,.83,77.90,.47,82.36,.33,71.54,.08,97.42,.09,350.67,.03,339.77,.03,270.00
2016.09.05-12:00,1.82,71.81,1.19,82.91,1.24,73.70,1.31,69.50,1.24,75.16,1.00,77.06,.83,77.59,.48,78.61,.35,68.95,.07,91.25,.09,4.60,.03,26.17,.02,270.00
2016.09.05-13:00,1.88,73.09,1.18,80.29,1.27,71.73,1.35,69.84,1.23,75.84,.98,76.12,.81,76.33,.47,74.63,.36,65.63,.06,82.03,.09,13.03,.02,60.96,.02,270.00
2016.09.05-14:00,1.93,75.61,1.20,78.29,1.31,70.36,1.38,70.58,1.22,76.48,.96,74.77,.79,74.68,.44,71.16,.36,63.61,.04,67.38,.08,14.40,.01,117.27,.02,270.00
2016.09.05-15:00,1.94,78.94,1.23,76.79,1.35,69.42,1.40,71.37,1.19,76.70,.94,72.84,.76,72.59,.41,67.96,.34,63.69,.03,46.29,.06,6.34,.03,222.42,.03,270.00
2016.09.05-16:00,1.86,81.78,1.25,75.23,1.38,68.68,1.39,72.10,1.16,76.46,.93,70.52,.73,70.10,.38,64.75,.33,66.16,.02,20.37,.04,339.55,.07,238.07,.04,270.00
2016.09.05-17:00,1.73,83.29,1.27,73.30,1.43,68.62,1.38,73.11,1.12,76.21,.92,68.50,.71,67.64,.35,60.69,.30,70.78,.01,348.90,.04,293.81,.10,245.78,.05,270.00
2016.09.05-18:00,1.57,84.45,1.29,71.49,1.47,69.79,1.36,74.60,1.08,76.12,.92,67.14,.70,65.27,.34,54.67,.27,76.22,.01,326.60,.04,267.12,.12,251.80,.06,270.00
2016.09.05-19:00,1.46,83.93,1.30,69.83,1.49,71.72,1.33,76.18,1.05,75.93,.93,66.43,.70,62.93,.36,48.97,.25,80.89,.01,107.33,.05,254.04,.13,257.57,.06,270.00
2016.09.05-20:00,1.36,82.06,1.30,67.95,1.49,73.63,1.29,77.44,1.02,75.63,.94,66.56,.73,61.54,.41,47.57,.25,84.19,.03,101.88,.05,247.32,.12,264.68,.06,270.00
2016.09.05-21:00,1.26,78.33,1.30,65.31,1.47,74.76,1.25,77.80,1.00,74.90,.96,67.13,.77,61.42,.47,49.91,.26,86.25,.05,95.34,.04,245.29,.10,275.34,.05,270.00
2016.09.05-22:00,1.23,73.30,1.36,62.96,1.47,75.53,1.23,77.42,1.01,73.76,.99,68.08,.83,62.67,.53,54.03,.27,87.02,.06,88.66,.02,254.07,.07,294.10,.04,270.00
2016.09.05-23:00,1.26,69.00,1.46,62.20,1.48,76.46,1.23,76.80,1.03,72.45,1.04,69.29,.89,64.62,.60,58.10,.27,85.25,.07,79.38,.01,289.91,.06,324.31,.03,270.00
2016.09.05-24:00,1.34,65.68,1.57,62.91,1.49,77.32,1.24,76.06,1.06,71.11,1.07,70.59,.94,66.81,.65,61.73,.27,80.39,.07,67.22,.02,317.01,.05,353.37,.02,270.00
2016.09.06-01:00,1.41,64.67,1.68,64.32,1.48,77.65,1.25,75.07,1.08,69.78,1.09,71.92,.97,69.10,.70,65.10,.28,74.20,.07,54.89,.03,311.47,.04,8.30,.02,270.00
2016.09.06-02:00,1.48,64.66,1.77,66.55,1.47,77.86,1.24,73.97,1.10,68.65,1.08,73.38,.96,71.23,.70,68.11,.28,67.35,.07,44.59,.05,302.85,.03,12.03,.02,270.00
2016.09.06-03:00,1.62,64.52,1.83,69.72,1.44,78.20,1.22,72.66,1.10,67.60,1.04,74.61,.92,72.71,.68,70.75,.27,59.95,.06,37.86,.06,295.31,.01,339.60,.02,270.00
2016.09.06-04:00,1.76,66.01,1.87,73.50,1.42,78.40,1.21,70.97,1.11,66.61,1.00,75.18,.87,73.36,.62,73.59,.26,53.43,.05,35.03,.08,288.11,.03,241.17,.03,270.00
2016.09.06-05:00,1.84,68.66,1.89,77.20,1.40,78.16,1.21,69.06,1.13,65.89,.95,75.21,.82,73.39,.55,77.29,.25,49.62,.04,41.32,.09,283.75,.06,236.83,.04,270.00
2016.09.06-06:00,1.87,71.73,1.89,80.79,1.38,77.35,1.23,67.59,1.15,65.82,.91,74.95,.78,72.81,.48,81.29,.24,49.22,.03,72.09,.10,282.68,.09,240.01,.05,270.00
2016.09.06-07:00,1.87,74.91,1.85,84.76,1.34,76.07,1.25,67.18,1.17,66.70,.87,74.44,.74,71.66,.43,83.82,.24,51.79,.04,106.60,.10,284.76,.11,244.17,.05,270.00
2016.09.06-08:00,1.79,77.82,1.75,88.66,1.29,74.34,1.26,67.48,1.17,68.24,.84,73.77,.73,70.71,.39,84.23,.25,57.47,.05,118.48,.10,291.20,.11,249.18,.06,270.00
2016.09.06-09:00,1.67,79.38,1.60,91.53,1.25,72.02,1.27,67.67,1.17,69.77,.83,73.05,.74,70.58,.38,83.13,.28,64.80,.07,122.07,.08,304.59,.10,256.44,.05,270.00
2016.09.06-10:00,1.54,79.14,1.45,92.69,1.25,69.34,1.28,67.74,1.17,71.15,.83,72.48,.76,71.29,.39,80.66,.31,70.59,.07,123.27,.08,325.05,.08,267.64,.05,270.00
2016.09.06-11:00,1.43,77.24,1.30,91.93,1.29,66.99,1.32,68.07,1.18,72.50,.84,72.16,.79,72.60,.41,77.15,.33,73.35,.07,122.12,.07,345.75,.05,283.05,.04,270.00
2016.09.06-12:00,1.35,74.32,1.19,89.37,1.35,65.64,1.37,68.80,1.19,73.77,.86,71.81,.81,74.05,.43,74.06,.35,74.28,.05,117.12,.07,359.33,.04,298.01,.03,270.00
2016.09.06-13:00,1.30,70.69,1.11,85.05,1.42,64.95,1.40,69.39,1.19,74.31,.87,70.48,.82,74.66,.46,71.89,.36,74.73,.04,105.37,.07,6.61,.03,300.82,.03,270.00
2016.09.06-14:00,1.29,67.18,1.08,80.01,1.49,65.17,1.42,70.12,1.17,74.42,.88,68.31,.80,74.34,.46,69.89,.36,74.84,.02,70.80,.05,7.54,.03,280.01,.03,270.00
2016.09.06-15:00,1.30,64.23,1.08,75.50,1.54,66.32,1.42,71.19,1.15,74.43,.89,65.97,.77,73.45,.44,67.39,.33,74.41,.02,5.89,.04,357.00,.04,256.66,.04,270.00
2016.09.06-16:00,1.32,61.88,1.11,71.60,1.56,67.68,1.41,72.21,1.11,74.02,.89,63.73,.73,72.03,.41,64.47,.30,74.01,.03,339.48,.02,308.56,.07,247.86,.04,270.00
2016.09.06-17:00,1.33,63.27,1.18,68.53,1.57,68.95,1.38,73.04,1.08,73.22,.90,61.87,.69,70.08,.38,61.01,.27,73.94,.03,327.26,.04,255.68,.09,246.31,.05,270.00
2016.09.06-18:00,1.34,65.14,1.25,66.15,1.59,70.38,1.35,73.81,1.05,72.51,.92,60.87,.66,67.94,.35,57.33,.23,74.94,.03,321.15,.06,242.54,.12,248.81,.06,270.00
2016.09.06-19:00,1.33,63.76,1.29,62.99,1.59,71.85,1.31,74.36,1.02,71.78,.94,60.82,.64,65.55,.35,54.16,.21,77.20,.01,332.87,.08,238.86,.13,253.03,.06,270.00
2016.09.06-20:00,1.27,61.36,1.32,59.37,1.56,73.23,1.26,74.87,1.00,71.32,.96,61.96,.64,63.57,.37,53.05,.21,80.13,.01,101.78,.08,239.11,.12,258.56,.06,270.00
2016.09.06-21:00,1.24,61.11,1.36,56.48,1.52,74.13,1.22,74.99,.98,70.83,.98,63.51,.67,62.15,.41,53.93,.21,83.17,.04,105.95,.08,242.29,.11,265.73,.06,270.00
2016.09.06-22:00,1.21,60.22,1.44,55.04,1.48,74.62,1.20,74.34,.99,69.97,1.01,64.92,.71,61.54,.45,55.64,.23,84.99,.05,104.14,.07,249.40,.08,275.80,.05,270.00
2016.09.06-23:00,1.20,59.68,1.55,55.35,1.46,75.26,1.20,73.40,1.02,69.18,1.05,66.60,.78,62.33,.51,57.62,.23,83.73,.06,100.86,.06,261.97,.06,289.58,.04,270.00
2016.09.06-24:00,1.22,59.53,1.66,57.29,1.45,76.10,1.23,72.68,1.06,68.75,1.09,68.64,.84,64.22,.56,59.73,.24,79.20,.06,95.92,.05,278.14,.04,307.51,.03,270.00
2016.09.07-01:00,1.27,59.36,1.75,60.34,1.43,76.64,1.25,72.22,1.10,68.52,1.11,70.73,.88,66.50,.60,62.10,.24,72.61,.06,89.50,.06,291.48,.02,322.95,.02,270.00
2016.09.07-02:00,1.35,59.30,1.81,63.90,1.41,76.65,1.27,71.93,1.12,68.37,1.11,72.76,.90,68.65,.63,64.52,.25,64.69,.05,81.44,.07,297.38,.01,293.38,.02,270.00
2016.09.07-03:00,1.44,60.23,1.82,67.69,1.38,76.33,1.27,71.68,1.13,68.22,1.09,74.72,.88,70.40,.62,66.89,.26,56.54,.03,70.63,.08,298.10,.02,221.34,.03,270.00
2016.09.07-04:00,1.52,62.59,1.80,71.63,1.35,75.87,1.26,71.23,1.13,67.98,1.05,76.52,.85,71.57,.59,69.43,.26,50.37,.02,59.49,.09,295.99,.05,220.55,.03,270.00
2016.09.07-05:00,1.61,65.95,1.76,75.26,1.33,75.08,1.24,70.38,1.12,67.50,1.00,78.01,.80,71.97,.54,72.51,.27,48.09,.01,70.58,.09,292.75,.08,229.42,.04,270.00
2016.09.07-06:00,1.69,70.01,1.75,78.01,1.33,73.85,1.24,69.45,1.12,67.17,.94,79.28,.76,71.80,.48,76.34,.26,49.46,.01,124.64,.10,290.30,.11,238.30,.05,270.00
2016.09.07-07:00,1.71,74.04,1.71,80.06,1.32,72.19,1.24,69.04,1.12,67.58,.87,80.45,.72,71.46,.42,79.94,.26,52.70,.03,144.84,.10,289.77,.13,244.63,.06,270.00
2016.09.07-08:00,1.63,78.02,1.62,81.78,1.30,70.07,1.23,69.09,1.11,68.67,.81,81.04,.69,71.13,.38,82.43,.26,58.16,.04,148.77,.09,292.15,.13,250.19,.06,270.00
2016.09.07-09:00,1.52,81.79,1.53,82.97,1.29,67.97,1.22,69.01,1.10,69.75,.77,80.47,.68,70.66,.35,83.45,.28,65.30,.05,150.41,.07,299.31,.12,256.08,.06,270.00
2016.09.07-10:00,1.39,84.98,1.43,83.40,1.30,66.06,1.22,68.37,1.09,70.10,.74,78.69,.69,70.06,.36,82.97,.31,72.58,.05,150.15,.06,311.87,.10,262.77,.05,270.00